DW7995 Weather Reports


Display with metric or nautical units.
time (UTC)temp
F
wind
direction
speed
MPH
gust
MPH
rain 1hr
in
rain 24hr
in
rain mn
in
humidity
%
barometer
mb
20260831210540 83 72 6.0 12.0 0.00 0.00 0.00 36 1021.2
20260831210111 84 80 0.0 9.0 0.00 0.00 0.00 36 1021.2
20260831205540 84 0 2.0 9.0 0.00 0.00 0.00 36 1021.2
20260831205040 84 51 0.0 5.0 0.00 0.00 0.00 35 1021.2
20260831204558 85 63 1.0 5.0 0.00 0.00 0.00 35 1021.2
20260831204040 86 0 0.0 4.0 0.00 0.00 0.00 34 1021.2
20260831203540 86 0 0.0 6.0 0.00 0.00 0.00 34 1021.2
20260831203111 85 0 1.0 9.0 0.00 0.00 0.00 34 1021.2
20260831202540 86 300 1.0 9.0 0.00 0.00 0.00 34 1021.2
20260831202040 86 353 1.0 9.0 0.00 0.00 0.00 34 1021.2
20260831201600 86 116 2.0 7.0 0.00 0.00 0.00 34 1021.2
20260831201040 86 0 1.0 7.0 0.00 0.00 0.00 34 1021.2
20260831200540 86 70 3.0 7.0 0.00 0.00 0.00 34 1021.2
20260831200059 86 0 0.0 7.0 0.00 0.00 0.00 34 1021.2
20260831195540 87 118 3.0 6.0 0.00 0.00 0.00 33 1021.2
20260831195040 87 107 0.0 6.0 0.00 0.00 0.00 34 1021.2
20260831194635 87 0 1.0 9.0 0.00 0.00 0.00 34 1021.2
20260831194040 88 174 3.0 9.0 0.00 0.00 0.00 33 1021.2
20260831193540 87 305 3.0 10.0 0.00 0.00 0.00 33 1021.2
20260831193100 87 0 5.0 11.0 0.00 0.00 0.00 34 1021.2
20260831192540 87 254 4.0 11.0 0.00 0.00 0.00 34 1021.2
20260831192039 86 181 5.0 10.0 0.00 0.00 0.00 36 1021.2
20260831191559 85 237 3.0 9.0 0.00 0.00 0.00 36 1021.2
20260831191039 84 0 0.0 5.0 0.00 0.00 0.00 37 1021.2
20260831190539 83 0 0.0 5.0 0.00 0.00 0.00 37 1021.2
20260831190114 84 86 1.0 5.0 0.00 0.00 0.00 36 1021.2
20260831185542 84 148 0.0 7.0 0.00 0.00 0.00 37 1021.2
20260831185038 84 293 0.0 7.0 0.00 0.00 0.00 37 1021.2
20260831184559 84 194 2.0 7.0 0.00 0.00 0.00 37 1021.2
20260831184040 84 264 2.0 9.0 0.00 0.00 0.00 36 1021.2
20260831183540 85 270 1.0 11.0 0.00 0.00 0.00 35 1021.2
20260831183100 86 294 6.0 11.0 0.00 0.00 0.00 34 1021.2
20260831182540 87 172 3.0 8.0 0.00 0.00 0.00 33 1021.2
20260831182045 87 138 4.0 8.0 0.00 0.00 0.00 34 1021.2
20260831181603 87 156 1.0 6.0 0.00 0.00 0.00 35 1021.2
20260831181039 86 206 3.0 7.0 0.00 0.00 0.00 35 1021.2
20260831180542 85 289 4.0 7.0 0.00 0.00 0.00 37 1021.2
20260831180100 85 53 3.0 6.0 0.00 0.00 0.00 37 1021.2
20260831175539 85 55 1.0 5.0 0.00 0.00 0.00 37 1021.2
20260831175039 83 249 1.0 7.0 0.00 0.00 0.00 40 1021.2
20260831174551 82 349 4.0 7.0 0.00 0.00 0.00 40 1021.2
20260831174041 83 27 2.0 8.0 0.00 0.00 0.00 39 1021.2
20260831173540 83 320 3.0 8.0 0.00 0.00 0.00 40 1021.2
20260831173101 83 158 3.0 11.0 0.00 0.00 0.00 38 1021.2
20260831172540 84 0 1.0 11.0 0.00 0.00 0.00 40 1021.2
20260831172039 84 80 0.0 7.0 0.00 0.00 0.00 36 1021.2
20260831171559 84 0 3.0 9.0 0.00 0.00 0.00 39 1021.2
20260831171039 85 127 2.0 10.0 0.00 0.00 0.00 38 1021.2
20260831170540 84 0 2.0 10.0 0.00 0.00 0.00 42 1021.2
20260831165538 83 71 2.0 6.0 0.00 0.00 0.00 43 1021.2
20260831165039 82 0 2.0 12.0 0.00 0.00 0.00 43 1021.2
20260831164608 83 289 2.0 12.0 0.00 0.00 0.00 40 1021.2
20260831164040 82 105 2.0 12.0 0.00 0.00 0.00 44 1021.2
20260831163539 82 148 2.0 10.0 0.00 0.00 0.00 44 1021.2
20260831163102 82 210 3.0 8.0 0.00 0.00 0.00 42 1021.2
20260831162543 81 215 2.0 8.0 0.00 0.00 0.00 45 1021.2
20260831162039 81 0 2.0 8.0 0.00 0.00 0.00 45 1021.2
20260831161601 80 221 2.0 8.0 0.00 0.00 0.00 46 1021.2
20260831161041 81 278 2.0 7.0 0.00 0.00 0.00 44 1021.2
20260831160542 81 260 0.0 7.0 0.00 0.00 0.00 46 1021.2
20260831160109 80 200 1.0 7.0 0.00 0.00 0.00 45 1021.2
20260831155542 79 266 1.0 6.0 0.00 0.00 0.00 46 1021.2
20260831155042 79 0 0.0 6.0 0.00 0.00 0.00 48 1021.2
20260831154706 78 162 3.0 7.0 0.00 0.00 0.00 48 1021.2
20260831154039 78 0 3.0 8.0 0.00 0.00 0.00 49 1021.2
20260831153541 77 143 1.0 12.0 0.00 0.00 0.00 52 1021.2
20260831153100 76 101 6.0 12.0 0.00 0.00 0.00 53 1021.2
20260831152539 76 82 6.0 13.0 0.00 0.00 0.00 54 1021.2
20260831152039 76 56 6.0 13.0 0.00 0.00 0.00 54 1021.2
20260831151552 76 64 7.0 13.0 0.00 0.00 0.00 55 1021.2
20260831151039 75 58 7.0 14.0 0.00 0.00 0.00 55 1021.2
20260831150540 75 72 6.0 14.0 0.00 0.00 0.00 55 1021.2
20260831150059 75 63 4.0 12.0 0.00 0.00 0.00 56 1021.2
20260831145539 75 54 5.0 13.0 0.00 0.00 0.00 56 1021.2
20260831145039 75 63 4.0 13.0 0.00 0.00 0.00 55 1021.2
20260831144558 75 70 5.0 13.0 0.00 0.00 0.00 56 1021.2
20260831144040 75 60 5.0 10.0 0.00 0.00 0.00 56 1021.2
20260831143539 75 72 4.0 8.0 0.00 0.00 0.00 56 1021.2
20260831143109 75 98 3.0 8.0 0.00 0.00 0.00 55 1021.2
20260831142540 75 4 3.0 9.0 0.00 0.00 0.00 56 1021.2
20260831142040 74 92 3.0 11.0 0.00 0.00 0.00 58 1021.2
20260831141615 74 64 4.0 11.0 0.00 0.00 0.00 58 1021.2
20260831141040 73 59 6.0 11.0 0.00 0.00 0.00 59 1021.2
20260831140541 73 68 3.0 10.0 0.00 0.00 0.00 58 1021.2
20260831140058 73 65 3.0 7.0 0.00 0.00 0.00 58 1021.2
20260831135539 73 0 2.0 8.0 0.00 0.00 0.00 58 1021.2
20260831135039 72 63 3.0 8.0 0.00 0.00 0.00 60 1021.2
20260831134602 72 56 0.0 8.0 0.00 0.00 0.00 60 1021.2
20260831134039 72 70 3.0 8.0 0.00 0.00 0.00 60 1021.2
20260831133540 72 91 0.0 2.0 0.00 0.00 0.00 60 1021.2
20260831133104 71 0 0.0 2.0 0.00 0.00 0.00 61 1021.2
20260831132540 71 0 0.0 2.0 0.00 0.00 0.00 62 1021.2
20260831132040 71 0 0.0 4.0 0.00 0.00 0.00 62 1021.2
20260831131611 70 0 0.0 10.0 0.00 0.00 0.00 63 1021.2
20260831131040 69 90 3.0 11.0 0.00 0.00 0.00 64 1021.2
20260831130539 69 0 2.0 11.0 0.00 0.00 0.00 65 1021.2
20260831130101 68 60 1.0 10.0 0.00 0.00 0.00 65 1021.2
20260831125539 68 67 4.0 9.0 0.00 0.00 0.00 66 1021.2
20260831125039 68 86 3.0 8.0 0.00 0.00 0.00 66 1021.2
20260831124611 67 74 2.0 6.0 0.00 0.00 0.00 67 1021.2
20260831124039 67 0 0.0 4.0 0.00 0.00 0.00 67 1021.2
20260831123539 67 0 0.0 0.0 0.00 0.00 0.00 66 1021.2
20260831123101 67 0 0.0 0.0 0.00 0.00 0.00 66 1021.2
20260831122541 68 0 0.0 3.0 0.00 0.00 0.00 65 1021.2
20260831122039 68 0 0.0 12.0 0.00 0.00 0.00 64 1021.2
20260831121554 69 0 1.0 12.0 0.00 0.00 0.00 64 1021.2
20260831121039 69 331 5.0 12.0 0.00 0.00 0.00 64 1021.2
20260831120539 69 52 6.0 12.0 0.00 0.00 0.00 64 1021.2
20260831120106 69 0 1.0 9.0 0.00 0.00 0.00 64 1021.2
20260831115538 69 94 1.0 9.0 0.00 0.00 0.00 63 1021.2
20260831115039 70 84 4.0 9.0 0.00 0.00 0.00 62 1021.2
20260831114600 69 0 3.0 8.0 0.00 0.00 0.00 62 1021.2
20260831114042 70 113 4.0 12.0 0.00 0.00 0.00 62 1021.2
20260831113539 70 79 3.0 12.0 0.00 0.00 0.00 62 1021.2
20260831113101 70 69 5.0 12.0 0.00 0.00 0.00 62 1021.2
20260831112539 69 105 4.0 8.0 0.00 0.00 0.00 62 1021.2
20260831112038 69 69 5.0 10.0 0.00 0.00 0.00 62 1021.2
20260831111601 70 58 3.0 10.0 0.00 0.00 0.00 62 1021.2
20260831111038 69 82 3.0 7.0 0.00 0.00 0.00 62 1021.2
20260831110538 69 0 0.0 7.0 0.00 0.00 0.00 61 1021.2
20260831110101 70 106 0.0 6.0 0.00 0.00 0.00 61 1021.2
20260831105539 70 0 0.0 6.0 0.00 0.00 0.00 61 1021.2
20260831105039 70 355 1.0 5.0 0.00 0.00 0.00 60 1021.2
20260831104604 70 0 0.0 6.0 0.00 0.00 0.00 60 1021.2
20260831104039 70 0 0.0 7.0 0.00 0.00 0.00 59 1021.2
20260831103538 71 4 1.0 14.0 0.00 0.00 0.00 58 1021.2
20260831103058 71 0 5.0 14.0 0.00 0.00 0.00 58 1021.2
20260831102540 71 118 2.0 11.0 0.00 0.00 0.00 59 1021.2
20260831102039 70 293 1.0 9.0 0.00 0.00 0.00 58 1021.2
20260831101615 70 0 2.0 9.0 0.00 0.00 0.00 59 1021.2
20260831101039 70 0 0.0 7.0 0.00 0.00 0.00 58 1021.2
20260831100539 70 0 0.0 7.0 0.00 0.00 0.00 59 1021.2
20260831100100 70 0 2.0 6.0 0.00 0.00 0.00 59 1021.2
20260831095539 70 0 0.0 10.0 0.00 0.00 0.00 59 1021.2
20260831095040 71 0 0.0 10.0 0.00 0.00 0.00 58 1021.2
20260831094558 71 0 0.0 6.0 0.00 0.00 0.00 58 1021.2
20260831094040 71 0 0.0 8.0 0.00 0.00 0.00 58 1021.2
20260831093543 71 323 2.0 11.0 0.00 0.00 0.00 57 1021.2
20260831093102 72 0 3.0 11.0 0.00 0.00 0.00 57 1021.2
20260831092539 72 176 3.0 13.0 0.00 0.00 0.00 57 1021.2
20260831092042 72 206 4.0 13.0 0.00 0.00 0.00 57 1021.2
20260831091600 71 297 3.0 13.0 0.00 0.00 0.00 59 1021.2
20260831091039 71 290 2.0 9.0 0.00 0.00 0.00 59 1021.2
20260831090539 71 98 1.0 5.0 0.00 0.00 0.00 60 1021.2
20260831090109 71 64 0.0 9.0 0.00 0.00 0.00 60 1021.2
20260831085539 71 0 1.0 13.0 0.00 0.00 0.00 61 1021.2
20260831085039 71 0 3.0 13.0 0.00 0.00 0.00 60 1021.2
20260831084600 72 70 3.0 10.0 0.00 0.00 0.00 59 1021.2
20260831084038 72 117 1.0 18.0 0.00 0.00 0.00 59 1021.2
20260831083538 72 288 3.0 18.0 0.00 0.00 0.00 59 1021.2
20260831083110 72 236 4.0 18.0 0.00 0.00 0.00 58 1021.2
20260831082539 72 214 4.0 18.0 0.00 0.00 0.00 58 1021.2
20260831082039 73 104 7.0 18.0 0.00 0.00 0.00 58 1021.2
20260831081601 73 201 6.0 14.0 0.00 0.00 0.00 57 1021.2
20260831081039 73 146 5.0 19.0 0.00 0.00 0.00 57 1021.2
20260831080538 73 205 7.0 19.0 0.00 0.00 0.00 56 1021.2
20260831080104 73 140 10.0 19.0 0.00 0.00 0.00 56 1021.2
20260831075538 73 203 7.0 20.0 0.00 0.00 0.00 56 1021.2
20260831075042 73 186 7.0 20.0 0.00 0.00 0.00 56 1021.2
20260831074602 73 169 5.0 20.0 0.00 0.00 0.00 56 1021.2
20260831074039 73 283 7.0 18.0 0.00 0.00 0.00 56 1021.2
20260831073539 73 127 7.0 17.0 0.00 0.00 0.00 56 1021.2
20260831073102 73 251 7.0 17.0 0.00 0.00 0.00 56 1021.2
20260831072538 73 199 5.0 13.0 0.00 0.00 0.00 56 1021.2
20260831072038 73 255 6.0 18.0 0.00 0.00 0.00 55 1021.2
20260831071603 73 212 6.0 18.0 0.00 0.00 0.00 56 1021.2
20260831071038 72 234 2.0 15.0 0.00 0.00 0.00 57 1021.2
20260831070538 71 0 5.0 13.0 0.00 0.00 0.00 58 1021.2
20260831070101 70 117 3.0 7.0 0.00 0.00 0.00 60 1021.2
20260831065538 70 0 0.0 4.0 0.00 0.00 0.00 59 1021.2
20260831065037 70 0 0.0 9.0 0.00 0.00 0.00 59 1021.2
20260831064558 70 0 0.0 9.0 0.00 0.00 0.00 60 1021.2
20260831064039 70 12 0.0 6.0 0.00 0.00 0.00 60 1021.2
20260831063539 70 0 0.0 6.0 0.00 0.00 0.00 60 1021.2
20260831063053 70 0 0.0 3.0 0.00 0.00 0.00 59 1021.2
20260831062539 70 0 0.0 4.0 0.00 0.00 0.00 59 1021.2
20260831062039 70 0 0.0 4.0 0.00 0.00 0.00 59 1021.2
20260831061607 71 0 0.0 4.0 0.00 0.00 0.00 59 1021.2
20260831061039 71 60 0.0 3.0 0.00 0.00 0.00 58 1021.2
20260831060538 71 0 0.0 3.0 0.00 0.00 0.00 57 1021.2
20260831060109 72 0 0.0 6.0 0.00 0.00 0.00 57 1021.2
20260831055538 72 0 0.0 6.0 0.00 0.00 0.00 56 1021.2
20260831055038 72 172 0.0 13.0 0.00 0.00 0.00 56 1021.2
20260831054553 72 0 3.0 13.0 0.00 0.00 0.00 56 1021.2
20260831054040 72 0 0.0 2.0 0.00 0.00 0.00 56 1021.2
20260831053539 72 301 0.0 2.0 0.00 0.00 0.00 56 1021.2
20260831053050 72 0 0.0 2.0 0.00 0.00 0.00 55 1021.2
20260831052540 73 0 0.0 7.0 0.00 0.00 0.00 54 1021.2
20260831052040 73 0 1.0 9.0 0.00 0.00 0.00 54 1021.2
20260831051613 73 0 2.0 9.0 0.00 0.00 0.00 53 1021.2
20260831051038 73 94 2.0 9.0 0.00 0.00 0.00 54 1021.2
20260831050539 73 0 1.0 7.0 0.00 0.00 0.00 54 1021.2
20260831050057 73 0 0.0 8.0 0.00 0.00 0.00 53 1021.2
20260831045539 74 42 2.0 8.0 0.00 0.00 0.00 53 1021.2
20260831045039 74 0 0.0 8.0 0.00 0.00 0.00 53 1021.2
20260831044601 74 0 2.0 8.0 0.00 0.00 0.00 52 1021.2
20260831044041 74 0 0.0 7.0 0.00 0.00 0.00 53 1021.2
20260831043538 74 0 1.0 6.0 0.00 0.00 0.00 52 1021.2
20260831043059 74 0 0.0 7.0 0.00 0.00 0.00 53 1021.2
20260831042538 74 0 1.0 7.0 0.00 0.00 0.00 53 1021.2
20260831042038 74 0 0.0 6.0 0.00 0.00 0.00 53 1021.2
20260831041600 74 0 1.0 11.0 0.00 0.00 0.00 53 1021.2
20260831041041 74 0 2.0 11.0 0.00 0.00 0.00 53 1021.2
20260831040540 74 0 0.0 1.0 0.00 0.00 0.00 54 1021.2
20260831040104 74 0 0.0 7.0 0.00 0.00 0.00 53 1021.2
20260831035539 74 0 0.0 7.0 0.00 0.00 0.00 53 1021.2
20260831035038 74 122 1.0 7.0 0.00 0.00 0.00 54 1021.2
20260831034601 74 41 0.0 7.0 0.00 0.00 0.00 54 1021.2
20260831034038 75 0 1.0 7.0 0.00 0.00 0.00 54 1021.2
20260831033538 74 68 0.0 9.0 0.00 0.00 0.00 54 1021.2
20260831033056 75 0 1.0 9.0 0.00 0.00 0.00 53 1021.2
20260831032538 74 0 0.0 6.0 0.00 0.00 0.00 53 1021.2
20260831032038 74 0 1.0 6.0 0.00 0.00 0.00 54 1021.2
20260831031550 72 0 0.0 6.0 0.00 0.00 0.00 57 1021.2
20260831031038 69 311 0.0 6.0 0.00 0.00 0.00 61 1021.2
20260831030538 68 0 0.0 1.0 0.00 0.00 0.00 60 1021.2
20260831030114 68 0 0.0 0.0 0.00 0.00 0.00 60 1021.2
20260831025538 68 0 0.0 0.0 0.00 0.00 0.00 59 1021.2
20260831025038 68 0 0.0 0.0 0.00 0.00 0.00 59 1021.2
20260831024636 69 0 0.0 0.0 0.00 0.00 0.00 57 1021.2
20260831024038 70 0 0.0 0.0 0.00 0.00 0.00 56 1021.2
20260831023537 70 0 0.0 0.0 0.00 0.00 0.00 56 1021.2
20260831023050 71 0 0.0 0.0 0.00 0.00 0.00 55 1021.2
20260831022539 72 0 0.0 0.0 0.00 0.00 0.00 54 1021.2
20260831022040 72 0 0.0 2.0 0.00 0.00 0.00 54 1021.2
20260831021603 73 0 0.0 2.0 0.00 0.00 0.00 54 1021.2
20260831021038 73 0 0.0 2.0 0.00 0.00 0.00 53 1021.2
20260831020539 73 0 0.0 0.0 0.00 0.00 0.00 52 1021.2
20260831020059 74 0 0.0 0.0 0.00 0.00 0.00 51 1021.2
20260831015538 74 0 0.0 0.0 0.00 0.00 0.00 51 1021.2
20260831015037 75 0 0.0 0.0 0.00 0.00 0.00 50 1021.2
20260831014551 75 0 0.0 0.0 0.00 0.00 0.00 49 1021.2
20260831014039 76 0 0.0 0.0 0.00 0.00 0.00 48 1021.2
20260831013538 77 0 0.0 3.0 0.00 0.00 0.00 47 1021.2
20260831013113 78 0 0.0 3.0 0.00 0.00 0.00 46 1021.2
20260831012539 78 0 0.0 2.0 0.00 0.00 0.00 46 1021.2
20260831012039 79 0 0.0 2.0 0.00 0.00 0.00 46 1021.2
20260831011605 79 0 0.0 0.0 0.00 0.00 0.00 45 1021.2
20260831011038 79 0 0.0 0.0 0.00 0.00 0.00 46 1021.2
20260831010538 79 0 0.0 0.0 0.00 0.00 0.00 45 1021.2
20260831010124 79 0 0.0 4.0 0.00 0.00 0.00 44 1021.2
20260831005543 78 0 0.0 13.0 0.00 0.00 0.00 45 1021.2
20260831005039 78 0 2.0 13.0 0.00 0.00 0.00 47 1021.2
20260831004551 78 209 2.0 9.0 0.00 0.00 0.00 48 1021.2
20260831004039 78 0 0.0 10.0 0.00 0.00 0.00 47 1021.2
20260831003542 78 256 2.0 13.0 0.00 0.00 0.00 46 1021.2
20260831003059 80 0 4.0 13.0 0.00 0.00 0.00 44 1021.2
20260831002539 81 238 4.0 13.0 0.00 0.00 0.00 43 1021.2
20260831002039 83 63 0.0 6.0 0.00 0.00 0.00 40 1021.2
20260831001555 83 233 0.0 3.0 0.00 0.00 0.00 39 1021.2
20260831001039 83 217 0.0 3.0 0.00 0.00 0.00 39 1021.2
20260831000539 84 0 0.0 3.0 0.00 0.00 0.00 38 1021.2
20260831000055 85 299 0.0 3.0 0.00 0.00 0.00 38 1021.2
20260830235541 85 0 0.0 0.0 0.00 0.00 0.00 37 1021.2
20260830235041 84 0 0.0 0.0 0.00 0.00 0.00 38 1021.2
20260830234608 83 0 0.0 0.0 0.00 0.00 0.00 40 1021.2
20260830234039 83 0 0.0 4.0 0.00 0.00 0.00 39 1021.2
20260830233539 83 0 0.0 4.0 0.00 0.00 0.00 38 1021.2
20260830233057 84 0 0.0 3.0 0.00 0.00 0.00 38 1021.2
20260830232541 84 285 1.0 3.0 0.00 0.00 0.00 38 1021.2
20260830232040 83 0 0.0 3.0 0.00 0.00 0.00 39 1021.2
20260830231602 82 0 0.0 3.0 0.00 0.00 0.00 40 1021.2
20260830231043 82 0 0.0 5.0 0.00 0.00 0.00 41 1021.2
20260830230540 81 0 0.0 5.0 0.00 0.00 0.00 41 1021.2
20260830225539 81 323 1.0 12.0 0.00 0.00 0.00 42 1021.2
20260830225039 81 0 2.0 12.0 0.00 0.00 0.00 42 1021.2
20260830224601 82 277 3.0 11.0 0.00 0.00 0.00 42 1021.2
20260830224041 83 350 0.0 9.0 0.00 0.00 0.00 40 1021.2
20260830223541 83 0 2.0 11.0 0.00 0.00 0.00 40 1021.2
20260830223058 84 73 5.0 11.0 0.00 0.00 0.00 38 1021.2
20260830222539 85 76 0.0 5.0 0.00 0.00 0.00 36 1021.2
20260830222038 85 0 0.0 6.0 0.00 0.00 0.00 36 1021.2
20260830221551 85 72 2.0 8.0 0.00 0.00 0.00 36 1021.2
20260830221040 86 79 2.0 8.0 0.00 0.00 0.00 36 1021.2
20260830220540 85 56 3.0 8.0 0.00 0.00 0.00 36 1021.2
20260830220103 86 63 2.0 7.0 0.00 0.00 0.00 36 1021.2
20260830215540 85 0 0.0 11.0 0.00 0.00 0.00 36 1021.2
20260830215039 86 72 4.0 11.0 0.00 0.00 0.00 35 1021.2
20260830214554 86 0 0.0 7.0 0.00 0.00 0.00 35 1021.2
20260830214039 86 60 1.0 7.0 0.00 0.00 0.00 35 1021.2
20260830213541 85 85 1.0 4.0 0.00 0.00 0.00 35 1021.2
20260830213053 85 0 0.0 6.0 0.00 0.00 0.00 37 1021.2
20260830212540 84 0 0.0 6.0 0.00 0.00 0.00 36 1021.2
20260830212040 84 0 0.0 6.0 0.00 0.00 0.00 36 1021.2
20260830211602 84 0 0.0 6.0 0.00 0.00 0.00 37 1021.2
20260830211040 84 0 1.0 6.0 0.00 0.00 0.00 37 1021.2